Time,TemperatureF,DewpointF,PressureIn,WindDirection,WindDirectionDegrees,WindSpeedMPH,WindSpeedGustMPH,Humidity,HourlyPrecipIn,Conditions,Clouds,dailyrainin,SoftwareType,DateUTC
2013-05-25 00:00:00,49.0,43.0,-100.00,North,-999,-999.0,-999.0,78,-99.99,,,-99.99,,2013-05-24 23:00:00,
2013-05-25 00:32:00,49.0,43.0,-100.00,North,-999,-999.0,-999.0,78,-99.99,,,-99.99,,2013-05-24 23:32:00,
2013-05-25 00:41:00,49.0,43.0,-100.00,North,-999,-999.0,-999.0,78,-99.99,,,-99.99,,2013-05-24 23:41:00,
2013-05-25 00:52:00,49.0,43.0,-100.00,North,-999,-999.0,-999.0,78,-99.99,,,-99.99,,2013-05-24 23:52:00,
2013-05-25 01:00:00,48.0,43.0,-100.00,North,-999,-999.0,-999.0,83,-99.99,,,-99.99,,2013-05-25 00:00:00,
2013-05-25 01:41:00,48.0,43.0,-100.00,North,-999,-999.0,-999.0,83,-99.99,,,-99.99,,2013-05-25 00:41:00,
2013-05-25 01:51:00,48.0,43.0,-100.00,North,-999,-999.0,-999.0,83,-99.99,,,-99.99,,2013-05-25 00:51:00,
2013-05-25 02:00:00,46.0,43.0,-100.00,North,-999,-999.0,-999.0,89,-99.99,,,-99.99,,2013-05-25 01:00:00,
2013-05-25 02:41:00,46.0,43.0,-100.00,North,-999,-999.0,-999.0,89,-99.99,,,-99.99,,2013-05-25 01:41:00,
2013-05-25 02:52:00,46.0,43.0,-100.00,North,-999,-999.0,-999.0,89,-99.99,,,-99.99,,2013-05-25 01:52:00,
2013-05-25 03:00:00,46.0,43.0,-100.00,North,-999,-999.0,-999.0,88,-99.99,,,-99.99,,2013-05-25 02:00:00,
2013-05-25 03:41:00,46.0,43.0,-100.00,North,-999,-999.0,-999.0,88,-99.99,,,-99.99,,2013-05-25 02:41:00,
2013-05-25 03:51:00,46.0,43.0,-100.00,North,-999,-999.0,-999.0,88,-99.99,,,-99.99,,2013-05-25 02:51:00,
2013-05-25 04:00:00,47.0,43.0,-100.00,North,-999,-999.0,-999.0,87,-99.99,,,-99.99,,2013-05-25 03:00:00,
2013-05-25 04:43:00,47.0,43.0,-100.00,North,-999,-999.0,-999.0,87,-99.99,,,-99.99,,2013-05-25 03:43:00,
2013-05-25 04:53:00,47.0,43.0,-100.00,North,-999,-999.0,-999.0,87,-99.99,,,-99.99,,2013-05-25 03:53:00,
2013-05-25 05:00:00,48.0,43.0,-100.00,North,-999,-999.0,-999.0,81,-99.99,,,-99.99,,2013-05-25 04:00:00,
2013-05-25 05:43:00,48.0,43.0,-100.00,North,-999,-999.0,-999.0,81,-99.99,,,-99.99,,2013-05-25 04:43:00,
2013-05-25 05:52:00,48.0,43.0,-100.00,North,-999,-999.0,-999.0,81,-99.99,,,-99.99,,2013-05-25 04:52:00,
2013-05-25 06:00:00,49.0,45.0,-100.00,North,-999,-999.0,-999.0,87,-99.99,,,-99.99,,2013-05-25 05:00:00,
2013-05-25 06:32:00,49.0,45.0,-100.00,North,-999,-999.0,-999.0,87,-99.99,,,-99.99,,2013-05-25 05:32:00,
2013-05-25 06:42:00,49.0,45.0,-100.00,North,-999,-999.0,-999.0,87,-99.99,,,-99.99,,2013-05-25 05:42:00,
2013-05-25 06:52:00,49.0,45.0,-100.00,North,-999,-999.0,-999.0,87,-99.99,,,-99.99,,2013-05-25 05:52:00,
2013-05-25 07:00:00,48.0,41.0,-100.00,North,-999,-999.0,-999.0,77,-99.99,,,-99.99,,2013-05-25 06:00:00,
2013-05-25 07:41:00,48.0,41.0,-100.00,North,-999,-999.0,-999.0,77,-99.99,,,-99.99,,2013-05-25 06:41:00,
2013-05-25 07:51:00,48.0,41.0,-100.00,North,-999,-999.0,-999.0,77,-99.99,,,-99.99,,2013-05-25 06:51:00,
2013-05-25 08:00:00,50.0,41.0,-100.00,North,-999,-999.0,-999.0,71,-99.99,,,-99.99,,2013-05-25 07:00:00,
2013-05-25 08:41:00,50.0,41.0,-100.00,North,-999,-999.0,-999.0,71,-99.99,,,-99.99,,2013-05-25 07:41:00,
2013-05-25 08:52:00,50.0,41.0,-100.00,North,-999,-999.0,-999.0,71,-99.99,,,-99.99,,2013-05-25 07:52:00,
2013-05-25 09:00:00,51.0,42.0,-100.00,North,-999,-999.0,-999.0,72,-99.99,,,-99.99,,2013-05-25 08:00:00,
2013-05-25 09:41:00,51.0,42.0,-100.00,North,-999,-999.0,-999.0,72,-99.99,,,-99.99,,2013-05-25 08:41:00,
2013-05-25 09:51:00,51.0,42.0,-100.00,North,-999,-999.0,-999.0,72,-99.99,,,-99.99,,2013-05-25 08:51:00,
2013-05-25 10:00:00,49.0,45.0,-100.00,North,-999,-999.0,-999.0,84,-99.99,,,-99.99,,2013-05-25 09:00:00,
2013-05-25 10:42:00,49.0,45.0,-100.00,North,-999,-999.0,-999.0,84,-99.99,,,-99.99,,2013-05-25 09:42:00,
2013-05-25 10:52:00,49.0,45.0,-100.00,North,-999,-999.0,-999.0,84,-99.99,,,-99.99,,2013-05-25 09:52:00,
2013-05-25 11:00:00,49.0,44.0,-100.00,North,-999,-999.0,-999.0,81,-99.99,,,-99.99,,2013-05-25 10:00:00,
2013-05-25 11:42:00,49.0,44.0,-100.00,North,-999,-999.0,-999.0,81,-99.99,,,-99.99,,2013-05-25 10:42:00,
2013-05-25 11:52:00,49.0,44.0,-100.00,North,-999,-999.0,-999.0,81,-99.99,,,-99.99,,2013-05-25 10:52:00,
2013-05-25 12:00:00,51.0,42.0,-100.00,North,-999,-999.0,-999.0,72,-99.99,,,-99.99,,2013-05-25 11:00:00,
2013-05-25 12:41:00,51.0,42.0,-100.00,North,-999,-999.0,-999.0,72,-99.99,,,-99.99,,2013-05-25 11:41:00,
2013-05-25 12:52:00,51.0,42.0,-100.00,North,-999,-999.0,-999.0,72,-99.99,,,-99.99,,2013-05-25 11:52:00,
2013-05-25 13:00:00,51.0,42.0,-100.00,North,-999,-999.0,-999.0,72,-99.99,,,-99.99,,2013-05-25 12:00:00,
2013-05-25 13:42:00,51.0,42.0,-100.00,North,-999,-999.0,-999.0,72,-99.99,,,-99.99,,2013-05-25 12:42:00,
2013-05-25 13:52:00,51.0,42.0,-100.00,North,-999,-999.0,-999.0,72,-99.99,,,-99.99,,2013-05-25 12:52:00,
2013-05-25 14:00:00,52.0,43.0,-100.00,North,-999,-999.0,-999.0,70,-99.99,,,-99.99,,2013-05-25 13:00:00,
2013-05-25 14:42:00,52.0,43.0,-100.00,North,-999,-999.0,-999.0,70,-99.99,,,-99.99,,2013-05-25 13:42:00,
2013-05-25 14:52:00,52.0,43.0,-100.00,North,-999,-999.0,-999.0,70,-99.99,,,-99.99,,2013-05-25 13:52:00,
2013-05-25 15:00:00,50.0,43.0,-100.00,North,-999,-999.0,-999.0,76,-99.99,,,-99.99,,2013-05-25 14:00:00,
2013-05-25 15:41:00,50.0,43.0,-100.00,North,-999,-999.0,-999.0,76,-99.99,,,-99.99,,2013-05-25 14:41:00,
2013-05-25 15:52:00,50.0,43.0,-100.00,North,-999,-999.0,-999.0,76,-99.99,,,-99.99,,2013-05-25 14:52:00,
2013-05-25 16:00:00,49.0,43.0,-100.00,North,-999,-999.0,-999.0,80,-99.99,,,-99.99,,2013-05-25 15:00:00,
2013-05-25 16:43:00,49.0,43.0,-100.00,North,-999,-999.0,-999.0,80,-99.99,,,-99.99,,2013-05-25 15:43:00,
2013-05-25 16:53:00,49.0,43.0,-100.00,North,-999,-999.0,-999.0,80,-99.99,,,-99.99,,2013-05-25 15:53:00,
2013-05-25 17:00:00,51.0,44.0,-100.00,North,-999,-999.0,-999.0,77,-99.99,,,-99.99,,2013-05-25 16:00:00,
2013-05-25 17:42:00,51.0,44.0,-100.00,North,-999,-999.0,-999.0,77,-99.99,,,-99.99,,2013-05-25 16:42:00,
2013-05-25 17:52:00,51.0,44.0,-100.00,North,-999,-999.0,-999.0,77,-99.99,,,-99.99,,2013-05-25 16:52:00,
2013-05-25 18:00:00,55.0,43.0,-100.00,North,-999,-999.0,-999.0,63,-99.99,,,-99.99,,2013-05-25 17:00:00,
2013-05-25 18:41:00,55.0,43.0,-100.00,North,-999,-999.0,-999.0,63,-99.99,,,-99.99,,2013-05-25 17:41:00,
2013-05-25 18:52:00,55.0,43.0,-100.00,North,-999,-999.0,-999.0,63,-99.99,,,-99.99,,2013-05-25 17:52:00,
2013-05-25 19:00:00,56.0,44.0,-100.00,North,-999,-999.0,-999.0,63,-99.99,,,-99.99,,2013-05-25 18:00:00,
2013-05-25 19:41:00,56.0,44.0,-100.00,North,-999,-999.0,-999.0,63,-99.99,,,-99.99,,2013-05-25 18:41:00,
2013-05-25 19:51:00,56.0,44.0,-100.00,North,-999,-999.0,-999.0,63,-99.99,,,-99.99,,2013-05-25 18:51:00,
2013-05-25 20:00:00,56.0,44.0,-100.00,North,-999,-999.0,-999.0,63,-99.99,,,-99.99,,2013-05-25 19:00:00,
2013-05-25 20:41:00,56.0,44.0,-100.00,North,-999,-999.0,-999.0,63,-99.99,,,-99.99,,2013-05-25 19:41:00,
2013-05-25 20:52:00,56.0,44.0,-100.00,North,-999,-999.0,-999.0,63,-99.99,,,-99.99,,2013-05-25 19:52:00,
2013-05-25 21:00:00,59.0,41.0,-100.00,North,-999,-999.0,-999.0,50,-99.99,,,-99.99,,2013-05-25 20:00:00,
2013-05-25 21:41:00,59.0,41.0,-100.00,North,-999,-999.0,-999.0,50,-99.99,,,-99.99,,2013-05-25 20:41:00,
2013-05-25 21:51:00,59.0,41.0,-100.00,North,-999,-999.0,-999.0,50,-99.99,,,-99.99,,2013-05-25 20:51:00,
2013-05-25 22:00:00,52.0,45.0,-100.00,North,-999,-999.0,-999.0,77,-99.99,,,-99.99,,2013-05-25 21:00:00,
2013-05-25 22:42:00,52.0,45.0,-100.00,North,-999,-999.0,-999.0,77,-99.99,,,-99.99,,2013-05-25 21:42:00,
2013-05-25 22:53:00,52.0,45.0,-100.00,North,-999,-999.0,-999.0,77,-99.99,,,-99.99,,2013-05-25 21:53:00,
2013-05-25 23:00:00,49.0,46.0,-100.00,North,-999,-999.0,-999.0,87,-99.99,,,-99.99,,2013-05-25 22:00:00,
2013-05-25 23:42:00,49.0,46.0,-100.00,North,-999,-999.0,-999.0,87,-99.99,,,-99.99,,2013-05-25 22:42:00,
2013-05-25 23:52:00,49.0,46.0,-100.00,North,-999,-999.0,-999.0,87,-99.99,,,-99.99,,2013-05-25 22:52:00,